TimeCST,TemperatureF,Dew PointF,Humidity,Sea Level PressureIn,VisibilityMPH,Wind Direction,Wind SpeedMPH,Gust SpeedMPH,PrecipitationIn,Events,Conditions,WindDirDegrees,DateUTC
12:56 AM,46.9,46.9,100,30.17,1.0,NNE,3.5,-,N/A,,Overcast,20,2013-12-08 06:56:00
1:56 AM,46.9,46.9,100,30.16,1.2,NNE,4.6,-,N/A,,Overcast,30,2013-12-08 07:56:00
2:18 AM,46.9,46.9,100,30.19,0.8,NE,4.6,-,N/A,,Overcast,40,2013-12-08 08:18:00
2:56 AM,48.0,48.0,100,30.15,1.0,NE,3.5,-,N/A,,Mist,50,2013-12-08 08:56:00
3:56 AM,48.0,48.0,100,30.16,1.5,Variable,3.5,-,N/A,,Overcast,0,2013-12-08 09:56:00
4:51 AM,48.2,48.2,100,30.18,0.8,Variable,3.5,-,0.00,,Mist,0,2013-12-08 10:51:00
4:56 AM,48.0,48.0,100,30.15,0.8,NNE,4.6,-,0.00,,Mist,30,2013-12-08 10:56:00
5:56 AM,48.9,48.9,100,30.14,1.0,East,3.5,-,0.00,,Mist,80,2013-12-08 11:56:00
6:20 AM,50.0,50.0,100,30.17,0.8,East,4.6,-,N/A,,Mist,80,2013-12-08 12:20:00
6:42 AM,50.0,50.0,100,30.18,1.0,NW,4.6,-,0.00,Rain,Light Rain,320,2013-12-08 12:42:00
6:53 AM,50.0,50.0,100,30.17,0.5,Calm,Calm,-,0.00,Fog-Rain,Light Rain,0,2013-12-08 12:53:00
6:56 AM,50.0,50.0,100,30.15,0.5,North,3.5,-,0.00,Fog,Fog,350,2013-12-08 12:56:00
7:56 AM,51.1,51.1,100,30.15,0.5,ENE,4.6,-,0.00,Fog-Rain,Light Rain,70,2013-12-08 13:56:00
8:16 AM,52.0,52.0,100,30.18,1.0,East,4.6,-,0.00,,Overcast,80,2013-12-08 14:16:00
8:56 AM,54.0,54.0,100,30.15,1.2,East,4.6,-,0.00,,Overcast,100,2013-12-08 14:56:00
9:12 AM,55.0,55.0,100,30.18,2.0,ESE,3.5,-,N/A,,Overcast,110,2013-12-08 15:12:00
9:21 AM,55.9,55.9,100,30.18,1.5,ESE,5.8,-,N/A,,Overcast,110,2013-12-08 15:21:00
9:54 AM,57.2,57.2,100,30.16,3.0,ESE,11.5,-,0.00,Rain,Light Rain,120,2013-12-08 15:54:00
9:56 AM,57.9,57.9,100,30.12,3.0,ESE,10.4,-,0.00,Rain,Light Rain,110,2013-12-08 15:56:00
10:56 AM,63.0,63.0,100,30.11,9.0,Variable,3.5,-,0.00,,Overcast,0,2013-12-08 16:56:00
11:08 AM,64.0,64.0,100,30.15,9.0,Variable,3.5,-,N/A,,Overcast,0,2013-12-08 17:08:00
11:45 AM,68.0,66.0,93,30.11,10.0,ESE,9.2,-,N/A,,Overcast,120,2013-12-08 17:45:00
11:56 AM,69.1,66.9,93,30.07,10.0,SE,8.1,-,N/A,,Overcast,130,2013-12-08 17:56:00
12:30 PM,73.0,68.0,84,30.10,10.0,SE,10.4,-,N/A,,Mostly Cloudy,140,2013-12-08 18:30:00
12:56 PM,73.9,69.1,85,30.05,10.0,South,9.2,-,N/A,,Mostly Cloudy,170,2013-12-08 18:56:00
1:37 PM,75.9,68.0,76,30.08,10.0,South,19.6,27.6,N/A,,Mostly Cloudy,190,2013-12-08 19:37:00
1:56 PM,75.9,69.1,79,30.03,10.0,South,20.7,26.5,N/A,,Mostly Cloudy,180,2013-12-08 19:56:00
2:56 PM,75.0,69.1,82,30.04,10.0,South,13.8,-,N/A,,Mostly Cloudy,180,2013-12-08 20:56:00
3:45 PM,73.9,70.0,87,30.08,10.0,South,11.5,-,N/A,,Mostly Cloudy,170,2013-12-08 21:45:00
3:56 PM,73.9,70.0,87,30.04,10.0,South,15.0,-,N/A,,Mostly Cloudy,180,2013-12-08 21:56:00
4:56 PM,71.1,70.0,96,30.05,10.0,South,8.1,-,N/A,,Scattered Clouds,180,2013-12-08 22:56:00
5:56 PM,70.0,68.0,93,30.05,9.0,SSE,5.8,-,N/A,,Scattered Clouds,150,2013-12-08 23:56:00
6:48 PM,70.0,68.0,93,30.10,7.0,SSE,8.1,-,N/A,,Mostly Cloudy,150,2013-12-09 00:48:00
6:56 PM,70.0,68.0,93,30.06,6.0,SSE,9.2,-,N/A,,Mostly Cloudy,150,2013-12-09 00:56:00
7:16 PM,70.0,68.0,93,30.10,6.0,SSE,9.2,-,N/A,,Mostly Cloudy,150,2013-12-09 01:16:00
7:19 PM,70.0,68.0,93,30.10,1.0,SSE,10.4,-,N/A,,Overcast,150,2013-12-09 01:19:00
7:56 PM,70.0,68.0,93,30.05,1.0,SSE,10.4,-,N/A,,Overcast,160,2013-12-09 01:56:00
8:07 PM,70.0,70.0,100,30.09,6.0,SSE,9.2,-,N/A,,Overcast,160,2013-12-09 02:07:00
8:56 PM,71.1,70.0,96,30.05,6.0,SSE,12.7,-,N/A,,Overcast,160,2013-12-09 02:56:00
9:56 PM,71.1,71.1,100,30.06,6.0,South,10.4,-,N/A,,Overcast,190,2013-12-09 03:56:00
10:22 PM,72.0,72.0,100,30.10,8.0,South,12.7,-,N/A,,Overcast,170,2013-12-09 04:22:00
10:32 PM,72.0,72.0,100,30.10,8.0,South,11.5,-,N/A,,Overcast,170,2013-12-09 04:32:00
10:56 PM,72.0,72.0,100,30.05,8.0,South,16.1,-,N/A,,Overcast,180,2013-12-09 04:56:00
11:56 PM,71.1,71.1,100,30.04,9.0,South,13.8,23.0,0.00,,Overcast,170,2013-12-09 05:56:00